Regional Weather Roundup
Issued by NWS Charleston, SC

Current Version | Previous Version | Text Only | Print | Product List | Glossary Off
Versions: 1 2 3 4 5 6 7 8 9 10 11 12 13 14 15 16 17 18 19 20 21 22 23 24 25 26 27 28 29 30 31 32 33 34 35 36 37 38 39 40 41 42 43 44 45 46 47 48 49 50
000 ASUS42 KCHS 222112 RWRCHS REGIONAL WEATHER ROUNDUP NATIONAL WEATHER SERVICE CHARLESTON SC 500 PM EDT WED MAR 22 2017 NOTE: "FAIR" INDICATES FEW OR NO CLOUDS BELOW 12,000 FEET WITH NO SIGNIFICANT WEATHER AND/OR OBSTRUCTIONS TO VISIBILITY. NOT ALL STATIONS ARE QUALITY CONTROLLED. USE DATA WITH CAUTION... ESPECIALLY DEWPOINT OBSERVATIONS. SCZ027-030-031-034>040-042>050-222200- ...SOUTHEAST SOUTH CAROLINA... CITY SKY/WX TMP DP RH WIND PRES REMARKS N CHARLESTON MOSUNNY 74 43 32 NE13G22 30.09R WATERFRONT PRK NOT AVBL JOHNS ISLAND FAIR 66 54 63 E16G25 30.10R PINOPOLIS N/A 64 52 63 N7 30.02R MONCKS CORNER FAIR 70 39 32 N9G17 30.11R SUMMERVILLE FAIR 72 43 35 N13 30.12R BEAUFORT MCAS MOSUNNY 73 54 51 E15 30.08R BEAUFORT ARPT FAIR 70 50 49 E9 30.09R HILTON HEAD IS MOSUNNY 64 55 72 E10 30.10R WALTERBORO CLEAR 72 43 35 N7G16 30.11S ALLENDALE FAIR 73 43 33 N8 30.09S ...SOUTHERN MIDLANDS AND PEE DEE... CITY SKY/WX TMP DP RH WIND PRES REMARKS GEORGETOWN FAIR 64 50 59 E13 30.13R KINGSTREE FAIR 64 30 27 N5 30.14R ORANGEBURG MOSUNNY 71 41 33 NE12 30.12R BARNWELL FAIR 75 46 35 N12 30.10S AIKEN FAIR 68 43 40 NE7 30.16S MANNING FAIR 68 41 37 N13 30.13R COLUMBIA CLOUDY 70 39 32 NE10 30.13R SUMTER CLOUDY 66 28 23 N13 30.13R FLORENCE CLOUDY 64 21 19 N18 30.16R MYRTLE BEACH MOSUNNY 63 52 67 SE16 30.14R N MYRTLE BEACH CLOUDY 61 51 70 SE14 30.12R $$ GAZ063-065-086>088-099>101-113>116-118-119-134>141-150-222200- ...SOUTHEAST GEORGIA... CITY SKY/WX TMP DP RH WIND PRES REMARKS SAVANNAH ARPT PTSUNNY 73 54 51 E16 30.07R HUNTER AAF MOSUNNY 73 57 57 E14 30.05R FORT STEWART SUNNY 80 54 41 NE6 30.03S STATESBORO MOSUNNY 78 55 45 N7 30.07R SYLVANIA CLOUDY N/A N/A N/A NE9 30.09S CLAXTON FAIR 78 57 47 N7 30.07R ...CSRA...CENTRAL AND FAR SOUTHEAST GEORGIA... CITY SKY/WX TMP DP RH WIND PRES REMARKS THOMSON PTSUNNY 70 47 44 MISG 30.17R AUGUSTA-BUSH CLOUDY 74 46 36 NE13 30.10R AUGUSTA-DANIEL CLOUDY 72 43 35 NE10 30.12R SWAINSBORO FAIR 73 54 49 NE8 30.09S VIDALIA PTSUNNY 79 55 44 NE8 30.07R EASTMAN CLOUDY 82 29 14 N8 30.08R HAZLEHURST MOCLDY 83 55 39 N10 30.03S ALMA MOSUNNY 83 53 35 N9 30.02S WAYCROSS MOSUNNY 87 56 34 N10 30.02S JESUP FAIR 82 50 32 NE9 30.04R BAXLEY PTSUNNY 82 61 47 N9 30.04R BRUNSWICK SUNNY 73 61 64 E17G23 30.07R SAINT SIMONS SUNNY 69 58 67 E16 30.07R $$ SCZ027-028-034-036>038-045-046-048>050-GAZ119-141-222200- ...LAKE AND SUPPLEMENTAL COASTAL OBSERVATIONS... STATION/POSITION TIME TEMP WIND PRES WAVE SWELL AIR SEA DIR/SP/G HT/PER HT/PER/DIR (UTC) (F) (DEG/KT/KT) (MB) (FT/S) (FT/S/D) WINYAH BAY NOT AVBL LAKE MURRAY 2020 67 350/ 4/ 8 1020.3 ACE BASIN NERRS 1945 76 10/ 4 1018.0 FORT PULASKI 2048 63 61 100/ 16/ 18 1018.9R SAPELO ISLAND 2000 71 70/ 17 1018.0 $$ ANZ835-935-AMZ111-154-330-350-352-354-370-450-454-472-222200- ...C-MAN AND BUOY OBSERVATIONS... STATION/POSITION TIME TEMP WIND PRES WAVE SWELL AIR SEA DIR/SP/G HT/PER HT/PER/DIR (UTC) (F) (DEG/KT/KT) (MB) (FT/S) (FT/S/D) BUOY 41004 2050 63 66 60/ 21/ 25 1018.6R 5/ 5 2/100/11 BUOY 41008 2050 64 62 70/ 16/ 19 1017.8R 2/11 2/110/11 FOLLY BEACH CMAN 2000 62 80/ 16/ 18 1019.8R CAPERS NEARSHORE 2008 61 80/ 17/ 23 1018.9R FRIPP NEARSHORE 2008 62 60 90/ 10/ 14 1018.6R STATION/POSITION TIME TEMP WIND PRES WAVE SWELL AIR SEA DIR/SP/G HT/PER HT/PER/DIR (UTC) (F) (DEG/KT/KT) (MB) (FT/S) (FT/S/D) 5E ST. MARYS GA 2030 65 N/A 2/11 2/ 90/11 FRYING PAN BUOY 2050 61 66 40/ 19/ 23 1020.1R 6/ 7 2/210/11 BUOY 41025 2050 49 72 10/ 27/ 35 1022.2R 10/ 9 3/16 CAPE LOOKOUT NC 2000 53 40/ 25/ 28 1021.1R BUOY 41002 2050 68 76 10/ 25/ 31 1015.5R 9/ 8 7/280/ 8 BUOY 41010 NOT AVBL ST AUGUSTINE FL 2100 68 67 70/ 12/ 13 1017.3S $$

USA.gov is the U.S. government's official web portal to all federal, state and local government web resources and services.